TimeMST,TemperatureF,Dew PointF,Humidity,Sea Level PressureIn,VisibilityMPH,Wind Direction,Wind SpeedMPH,Gust SpeedMPH,PrecipitationIn,Events,Conditions,WindDirDegrees,DateUTC
12:53 AM,32.0,28.0,85,30.16,10.0,Calm,Calm,-,N/A,,Clear,0,2012-11-06 07:53:00
1:53 AM,30.0,26.1,85,30.20,10.0,NNW,4.6,-,N/A,,Mostly Cloudy,330,2012-11-06 08:53:00
2:53 AM,28.9,26.1,89,30.22,10.0,NW,5.8,-,N/A,,Partly Cloudy,320,2012-11-06 09:53:00
3:53 AM,28.0,25.0,88,30.23,10.0,NW,5.8,-,N/A,,Clear,310,2012-11-06 10:53:00
4:53 AM,28.0,25.0,88,30.24,10.0,NW,6.9,-,N/A,,Clear,320,2012-11-06 11:53:00
5:53 AM,28.0,25.0,88,30.26,10.0,West,6.9,-,N/A,,Clear,280,2012-11-06 12:53:00
6:53 AM,26.1,24.1,92,30.27,10.0,WNW,4.6,-,N/A,,Clear,300,2012-11-06 13:53:00
7:53 AM,28.9,27.0,92,30.28,10.0,WNW,4.6,-,N/A,,Clear,290,2012-11-06 14:53:00
8:53 AM,32.0,28.9,88,30.28,10.0,NW,3.5,-,N/A,,Mostly Cloudy,320,2012-11-06 15:53:00
9:53 AM,36.0,30.9,82,30.27,10.0,NNW,4.6,-,N/A,,Overcast,340,2012-11-06 16:53:00
10:53 AM,41.0,30.0,65,30.27,10.0,NW,6.9,-,N/A,,Overcast,310,2012-11-06 17:53:00
11:53 AM,43.0,28.0,56,30.22,10.0,WNW,3.5,-,N/A,,Overcast,300,2012-11-06 18:53:00
12:53 PM,48.0,27.0,44,30.17,10.0,SSW,4.6,-,N/A,,Mostly Cloudy,200,2012-11-06 19:53:00
1:53 PM,50.0,28.0,43,30.17,10.0,Calm,Calm,-,N/A,,Clear,0,2012-11-06 20:53:00
2:53 PM,51.1,26.1,38,30.15,10.0,Calm,Calm,-,N/A,,Clear,0,2012-11-06 21:53:00
3:53 PM,50.0,26.1,39,30.12,10.0,SE,8.1,-,N/A,,Scattered Clouds,130,2012-11-06 22:53:00
4:53 PM,41.0,27.0,57,30.13,10.0,East,9.2,-,N/A,,Scattered Clouds,90,2012-11-06 23:53:00
5:53 PM,39.0,27.0,62,30.11,10.0,East,11.5,-,N/A,,Clear,100,2012-11-07 00:53:00
6:53 PM,39.0,26.1,60,30.09,10.0,East,10.4,-,N/A,,Clear,100,2012-11-07 01:53:00
7:53 PM,37.9,26.1,62,30.06,10.0,East,12.7,-,N/A,,Clear,100,2012-11-07 02:53:00
8:53 PM,39.0,25.0,57,30.04,10.0,ESE,15.0,-,N/A,,Clear,110,2012-11-07 03:53:00
9:53 PM,39.9,26.1,58,29.99,10.0,ESE,16.1,-,N/A,,Mostly Cloudy,110,2012-11-07 04:53:00
10:53 PM,39.0,26.1,60,29.96,10.0,ESE,16.1,-,N/A,,Partly Cloudy,110,2012-11-07 05:53:00
11:53 PM,37.0,26.1,65,29.92,10.0,ESE,16.1,-,N/A,,Clear,110,2012-11-07 06:53:00